Location: Camp Roosevelt
(41.7914°N, 81.1673°W)
Time: 17:29:51
(UTC+00:00)

Timation 2 Rocket - Pass Details

Date: 29 October 2020
Orbit: 904 x 1077 km, 70.0° (Epoch: 24 November)

Event Time Altitude Azimuth Distance (km) Brightness Sun altitude
Rises 22:46:28 0° 335° (NNW) 3,756 7.2 -5.2°
Reaches altitude 10° 22:49:01 10° 336° (NNW) 2,826 6.6 -5.7°
Maximum altitude 22:55:42 80° 64° (ENE) 1,074 4.2 -6.9°
Drops below altitude 10° 23:02:33 10° 152° (SSE) 2,896 6.3 -8.1°
Sets 23:05:11 0° 153° (SSE) 3,855 7.0 -8.6°
